Stations météo

Publicité
Gueret-St Laurent, France (7361): Température de l'air & dewpoint: 21.06.2019 12:00:00 - 27.06.2019 12:00:00 (CEST)Gueret-St Laurent, France (7361): Température de l'air 5cm: 21.06.2019 12:00:00 - 27.06.2019 12:00:00 (CEST)Gueret-St Laurent, France (7361): Température de l'air -20cm & Température de l'air -100cm: 21.06.2019 12:00:00 - 27.06.2019 12:00:00 (CEST)Gueret-St Laurent, France (7361): Vitesse du vent & gusts: 21.06.2019 12:00:00 - 27.06.2019 12:00:00 (CEST)Gueret-St Laurent, France (7361): Direction du vent: 21.06.2019 12:00:00 - 27.06.2019 12:00:00 (CEST)Gueret-St Laurent, France (7361): reduced air pressure: 21.06.2019 12:00:00 - 27.06.2019 12:00:00 (CEST)Gueret-St Laurent, France (7361): visibility: 21.06.2019 12:00:00 - 27.06.2019 12:00:00 (CEST)Gueret-St Laurent, France (7361): Ensoleillement: 21.06.2019 12:00:00 - 27.06.2019 12:00:00 (CEST)Gueret-St Laurent, France (7361): Quantités de précipitations: 21.06.2019 12:00:00 - 27.06.2019 12:00:00 (CEST)
Date & Time tt [°C] td [°C] tt 5cm [°C] tt -20cm [°C] tt -100cm [°C] ff [km/h] ff [knt] fx [km/h] fx [knt] dd ppp [hPa] vv [km] sd [min] rr [mm]
27.06.2019 12:00:00 - - - - - - - - - - - - - -
27.06.2019 11:00:00 30,8 18,2 33,3 21,0 16,4 0 0 9 5 N 1019,2 19 60 0,0
27.06.2019 10:00:00 27,2 18,8 26,9 21,1 16,4 2 1 8 5 E 1019,6 20 60 0,0
27.06.2019 09:00:00 22,7 17,4 21,5 21,2 16,4 4 2 9 5 ESE 1020,1 20 60 0,0
27.06.2019 08:00:00 18,4 17,1 16,1 21,2 16,4 4 2 9 5 ESE 1020,4 20 60 0,0
27.06.2019 07:00:00 16,0 15,8 12,7 21,3 16,4 8 4 14 8 SE 1020,5 17 19 0,0
27.06.2019 06:00:00 15,6 15,1 12,9 21,3 16,4 3 2 10 6 NE 1020,7 2,8 0 0,0
27.06.2019 05:00:00 16,3 15,8 12,9 21,3 16,3 5 3 8 5 ESE 1020,0 11 0 0,2
27.06.2019 04:00:00 17,4 16,9 13,9 21,3 16,3 5 3 9 5 E 1019,7 18 0 0,0
27.06.2019 03:00:00 18,2 17,4 14,2 21,3 16,3 4 2 11 6 SSE 1019,6 19 0 0,0
27.06.2019 02:00:00 18,4 17,6 14,3 21,3 16,3 4 2 6 3 E 1019,4 4,2 0 0,0
27.06.2019 01:00:00 19,7 18,4 15,9 21,2 16,3 0 0 6 4 N 1019,3 20 0 0,0
27.06.2019 00:00:00 21,5 19,2 17,1 21,2 16,3 4 2 6 4 SSE 1018,7 20 0 0,0
26.06.2019 23:00:00 23,6 19,9 18,6 21,1 16,3 3 1 7 4 SSE 1017,9 20 0 0,0
26.06.2019 22:00:00 26,9 19,3 21,2 21,0 16,3 5 3 12 6 S 1016,9 20 10 0,0
26.06.2019 21:00:00 30,9 18,3 25,8 20,9 16,2 4 2 19 11 SSE 1015,9 20 58 0,0
26.06.2019 20:00:00 34,3 17,1 31,5 20,8 16,2 6 4 16 9 E 1015,3 20 60 0,0
26.06.2019 19:00:00 35,6 18,7 33,0 20,6 16,2 7 4 24 13 E 1015,0 20 60 0,0
26.06.2019 18:00:00 35,9 20,2 34,3 20,6 16,2 9 5 27 15 ENE 1015,0 20 60 0,0
26.06.2019 17:00:00 35,3 19,7 34,3 20,5 16,2 18 10 28 15 NE 1015,4 19 60 0,0
26.06.2019 16:00:00 35,2 18,7 36,7 20,4 16,2 16 8 25 14 ENE 1016,0 20 60 0,0
26.06.2019 15:00:00 34,9 18,5 38,2 20,4 16,2 11 6 19 11 ENE 1016,5 20 60 0,0
26.06.2019 14:00:00 33,2 19,3 37,8 20,3 16,2 10 5 16 9 NE 1017,3 20 60 0,0
26.06.2019 13:00:00 33,3 17,5 37,6 20,4 16,2 3 2 10 6 SSE 1017,7 20 60 0,0
26.06.2019 12:00:00 31,6 15,1 37,5 20,4 16,1 3 2 9 5 ENE 1018,1 13 60 0,0
26.06.2019 11:00:00 29,0 17,2 32,9 20,5 16,2 0 0 8 4 N 1018,4 20 60 0,0
26.06.2019 10:00:00 24,7 16,1 25,0 20,5 16,1 6 3 10 5 ESE 1018,9 19 60 0,0
26.06.2019 09:00:00 21,0 16,2 19,3 20,6 16,1 6 3 15 8 ESE 1019,2 20 60 0,0
26.06.2019 08:00:00 17,3 15,6 15,4 20,6 16,1 9 5 14 7 E 1019,1 20 60 0,0
26.06.2019 07:00:00 15,5 15,2 13,4 20,7 16,1 7 4 14 8 ESE 1019,1 17 32 0,0
26.06.2019 06:00:00 14,5 14,3 11,4 20,7 16,1 7 4 12 7 E 1019,0 6 0 0,0
26.06.2019 05:00:00 14,6 14,3 11,8 20,7 16,1 6 4 9 5 E 1018,6 5 0 0,0
26.06.2019 04:00:00 15,5 15,2 12,4 20,7 16,1 6 3 8 4 E 1018,6 3,7 0 0,0
26.06.2019 03:00:00 16,1 15,3 13,3 20,7 16,1 3 1 7 4 E 1018,8 7 0 0,0
26.06.2019 02:00:00 16,9 15,9 14,3 20,7 16,0 4 2 6 4 ESE 1019,1 4,7 0 0,0
26.06.2019 01:00:00 18,0 17,2 15,8 20,7 16,1 2 1 19 11 E 1019,5 4,6 0 0,0
26.06.2019 00:00:00 19,2 17,2 16,3 20,6 16,0 0 0 6 3 N 1019,6 13 0 0,0
25.06.2019 23:00:00 20,5 17,5 16,9 20,5 16,0 2 1 4 2 ESE 1019,3 20 0 0,0
25.06.2019 22:00:00 22,6 17,3 19,0 20,4 16,0 2 1 5 3 S 1018,1 20 0 0,0
25.06.2019 21:00:00 27,2 17,9 23,8 20,3 16,0 4 2 9 5 NW 1017,2 20 57 0,0
25.06.2019 20:00:00 29,8 17,9 29,5 20,2 16,0 4 2 10 6 NW 1016,6 20 60 0,0
25.06.2019 19:00:00 30,5 16,5 30,2 20,1 16,0 3 2 12 7 NW 1016,2 18 60 0,0
25.06.2019 18:00:00 31,0 17,3 31,0 20,0 16,0 5 3 12 7 NW 1016,1 20 60 0,0
25.06.2019 17:00:00 30,7 16,7 31,3 19,9 16,0 5 3 12 7 ENE 1016,4 20 58 0,0
25.06.2019 16:00:00 30,2 17,0 33,2 19,9 16,0 5 3 15 8 WNW 1016,6 20 60 0,0
25.06.2019 15:00:00 29,3 16,1 33,9 19,8 15,9 8 4 21 12 SSW 1016,6 20 60 0,0
25.06.2019 14:00:00 28,8 15,3 32,2 19,8 16,0 8 4 23 13 SW 1016,8 20 60 0,0
25.06.2019 13:00:00 27,9 15,2 32,2 19,8 15,9 11 6 27 14 SSW 1016,9 19 60 0,0
25.06.2019 12:00:00 27,7 16,0 29,8 19,9 15,9 11 6 25 13 S 1016,6 19 60 0,0
25.06.2019 11:00:00 25,9 13,7 26,0 19,9 15,9 16 9 26 14 S 1016,6 20 45 0,0
25.06.2019 10:00:00 22,3 15,4 20,3 20,0 15,9 5 3 11 6 ESE 1017,2 20 0 0,0
25.06.2019 09:00:00 19,1 15,0 18,3 20,0 15,9 6 3 11 6 E 1017,2 20 2 0,0
25.06.2019 08:00:00 17,4 14,3 15,3 20,0 15,9 7 4 14 8 ESE 1017,1 20 4 0,0
25.06.2019 07:00:00 15,8 13,8 14,2 20,1 15,9 7 4 12 7 E 1016,9 20 0 0,0
25.06.2019 06:00:00 15,1 13,8 14,2 20,1 15,9 8 4 12 7 ESE 1016,4 20 0 0,0
25.06.2019 05:00:00 15,6 14,3 14,2 20,1 15,9 7 4 9 5 E 1016,0 20 0 0,0
25.06.2019 04:00:00 16,3 14,7 13,6 20,1 15,9 7 4 13 7 ESE 1015,4 20 0 0,0
25.06.2019 03:00:00 16,2 14,7 13,4 20,1 15,9 5 3 9 5 E 1015,4 20 0 0,0
25.06.2019 02:00:00 17,1 15,6 13,6 20,1 15,9 4 2 6 4 ESE 1014,9 20 0 0,0
25.06.2019 01:00:00 18,3 16,6 15,2 20,1 15,9 4 2 8 4 E 1014,7 16 0 0,0
25.06.2019 00:00:00 19,9 15,9 16,3 19,9 15,8 5 3 10 5 SSW 1014,5 20 0 0,0
24.06.2019 23:00:00 21,7 19,3 19,2 19,9 15,8 5 3 8 5 ESE 1014,3 20 0 0,0
24.06.2019 22:00:00 23,5 18,6 20,5 19,8 15,8 0 0 11 6 N 1013,7 2,9 0 0,0
24.06.2019 21:00:00 26,1 19,0 24,4 19,6 15,8 3 2 6 4 SSE 1012,5 20 23 0,0
24.06.2019 20:00:00 28,9 18,7 28,2 19,5 15,8 3 2 17 9 S 1011,7 20 48 0,0
24.06.2019 19:00:00 29,4 17,9 28,8 19,5 15,8 4 2 15 8 WSW 1012,2 20 36 0,0
24.06.2019 18:00:00 31,7 17,2 32,0 19,3 15,8 5 3 17 9 WSW 1011,2 20 60 0,0
24.06.2019 17:00:00 32,0 18,2 32,7 19,2 15,8 3 2 9 5 SW 1011,4 20 33 0,0
24.06.2019 16:00:00 30,9 20,5 31,8 19,2 15,8 0 0 16 9 N 1011,5 20 18 0,0
24.06.2019 15:00:00 31,1 17,0 32,5 19,1 15,8 6 4 16 8 E 1011,3 20 25 0,0
24.06.2019 14:00:00 30,3 17,4 32,4 19,1 15,8 9 5 14 7 ENE 1011,7 20 13 -
24.06.2019 13:00:00 30,6 17,0 34,2 19,1 15,8 3 1 8 4 E 1012,2 20 42 0,0
24.06.2019 12:00:00 29,1 17,0 35,2 19,1 15,7 2 1 6 4 NNW 1013,0 20 60 0,0
24.06.2019 11:00:00 27,7 16,9 32,2 19,1 15,7 4 2 8 5 E 1013,4 20 60 0,0
24.06.2019 10:00:00 24,8 16,8 26,2 19,1 15,7 4 2 11 6 SSE 1013,7 20 60 0,0
24.06.2019 09:00:00 20,4 15,2 21,5 19,2 15,7 9 5 13 7 ESE 1014,3 20 60 0,0
24.06.2019 08:00:00 17,5 15,1 15,4 19,2 15,7 3 2 5 3 E 1014,8 20 44 0,0
24.06.2019 07:00:00 15,3 13,8 13,5 19,3 15,7 5 3 16 8 ESE 1015,0 20 33 0,0
24.06.2019 06:00:00 14,6 13,6 13,2 19,3 15,7 6 3 11 6 E 1015,2 20 0 0,0
24.06.2019 05:00:00 15,1 14,0 13,9 19,3 15,7 8 5 13 7 E 1015,2 20 0 0,0
24.06.2019 04:00:00 15,6 14,6 12,3 19,3 15,7 9 5 14 7 ESE 1015,3 20 0 0,0
24.06.2019 03:00:00 14,7 14,1 12,0 19,3 15,7 4 2 11 6 ESE 1016,0 6 0 0,0
24.06.2019 02:00:00 15,2 14,9 12,1 19,3 15,7 5 3 9 5 E 1016,1 20 0 0,0
24.06.2019 01:00:00 15,6 14,5 12,4 19,2 15,7 3 2 5 3 ESE 1015,9 4,2 0 0,0
24.06.2019 00:00:00 17,0 15,3 13,7 19,1 15,7 4 2 6 4 SE 1015,6 20 0 0,0
23.06.2019 23:00:00 18,4 16,2 14,9 19,0 15,7 3 2 8 4 SSE 1015,1 20 0 0,0
23.06.2019 22:00:00 20,8 17,2 16,6 18,9 15,7 4 2 6 3 SSE 1014,1 2,1 21 0,0
23.06.2019 21:00:00 24,3 17,3 22,0 18,8 15,7 2 1 6 3 E 1013,0 20 14 0,0
23.06.2019 20:00:00 27,4 14,1 25,2 18,7 15,7 3 1 7 4 WSW 1012,0 20 34 0,0
23.06.2019 19:00:00 29,7 13,9 29,0 18,6 15,7 3 2 10 5 ENE 1011,3 20 60 0,0
23.06.2019 18:00:00 29,8 13,5 30,0 18,4 15,7 4 2 10 5 E 1011,4 20 60 0,0
23.06.2019 17:00:00 29,8 12,2 30,9 18,3 15,6 4 2 11 6 S 1011,6 20 60 0,0
23.06.2019 16:00:00 29,0 13,2 30,8 18,2 15,7 4 2 11 6 E 1011,7 20 32 0,0
23.06.2019 15:00:00 28,3 13,4 30,2 18,2 15,7 5 3 18 10 E 1011,8 20 34 0,0
23.06.2019 14:00:00 27,7 14,3 32,8 18,2 15,6 8 4 18 10 E 1011,6 20 60 0,0
23.06.2019 13:00:00 26,2 13,3 32,2 18,2 15,7 9 5 19 10 ESE 1012,2 20 60 0,0
23.06.2019 12:00:00 24,8 15,4 26,2 18,2 15,7 8 4 16 8 ESE 1012,2 20 39 0,0
23.06.2019 11:00:00 23,0 15,3 26,9 18,3 15,7 8 5 17 9 ESE 1012,8 20 48 0,0
23.06.2019 10:00:00 20,5 14,4 24,1 18,3 15,6 8 5 15 8 ESE 1013,4 20 55 0,0
23.06.2019 09:00:00 17,6 15,0 17,4 18,4 15,6 8 5 14 8 ESE 1013,9 20 58 0,0
23.06.2019 08:00:00 13,6 13,1 11,4 18,4 15,6 3 1 13 7 ESE 1014,6 20 39 0,0
23.06.2019 07:00:00 11,4 11,2 9,4 18,5 15,6 8 5 12 7 ESE 1014,8 20 29 0,0
23.06.2019 06:00:00 10,9 10,7 9,2 18,6 15,6 6 4 12 6 SE 1014,9 19 0 0,2
23.06.2019 05:00:00 10,7 10,5 7,4 18,6 15,6 6 3 9 5 ESE 1015,5 10 0 0,0
23.06.2019 04:00:00 10,4 9,9 7,6 18,6 15,7 0 0 5 3 N 1015,9 0,8 0 0,0
23.06.2019 03:00:00 11,1 10,5 8,5 18,6 15,6 2 1 9 5 ESE 1015,9 4,8 0 0,0
23.06.2019 02:00:00 11,4 10,8 8,3 18,6 15,6 4 2 7 4 E 1016,3 2,7 0 0,0
23.06.2019 01:00:00 12,5 12,0 9,0 18,6 15,6 4 2 6 3 SE 1016,4 15 0 0,0
23.06.2019 00:00:00 13,5 12,9 9,9 18,5 15,6 3 2 5 3 S 1016,6 20 0 0,0
22.06.2019 23:00:00 14,7 12,9 11,0 18,4 15,6 2 1 7 4 S 1016,8 6 0 0,0
22.06.2019 22:00:00 16,7 13,2 12,8 18,4 15,6 0 0 8 4 N 1015,8 1,0 0 0,0
22.06.2019 21:00:00 20,0 13,5 18,1 18,3 15,6 6 3 13 7 NE 1015,1 20 35 0,0
22.06.2019 20:00:00 21,7 14,1 21,4 18,2 15,6 7 4 16 8 NNE 1014,8 20 29 0,0
22.06.2019 19:00:00 21,8 14,2 22,4 18,1 15,6 8 5 19 10 NNE 1014,8 20 39 0,0
22.06.2019 18:00:00 21,7 14,8 22,4 18,0 15,6 4 2 21 12 ESE 1015,1 20 17 0,0
22.06.2019 17:00:00 21,5 14,4 23,2 17,9 15,6 7 4 18 10 ENE 1015,7 20 15 0,0
22.06.2019 16:00:00 22,1 14,5 24,1 17,8 15,6 7 4 24 13 NE 1015,9 20 33 0,0
22.06.2019 15:00:00 22,4 14,8 24,4 17,8 15,6 10 5 21 11 E 1016,2 20 53 0,0
22.06.2019 14:00:00 21,3 14,7 21,9 17,7 15,6 5 3 13 7 WNW 1017,0 20 17 0,0
22.06.2019 13:00:00 19,5 13,7 22,7 17,7 15,6 8 5 16 9 N 1017,6 20 34 0,0
22.06.2019 12:00:00 19,8 13,7 25,9 17,7 15,6 6 3 16 9 N 1017,7 20 55 0,0
22.06.2019 11:00:00 18,9 12,4 23,8 17,8 15,6 4 2 8 4 ESE 1017,8 20 54 0,0
22.06.2019 10:00:00 16,9 13,2 17,6 17,8 15,5 3 2 9 5 SE 1018,3 20 43 0,0
22.06.2019 09:00:00 14,4 12,6 13,7 17,8 15,6 0 0 6 3 N 1018,6 20 7 0,0
22.06.2019 08:00:00 13,2 12,1 13,1 17,9 15,5 5 3 9 5 ESE 1018,8 20 0 0,0
22.06.2019 07:00:00 12,9 12,6 12,6 17,9 15,5 0 0 9 5 N 1018,8 13 0 0,0
22.06.2019 06:00:00 12,7 11,9 12,5 17,9 15,5 4 2 7 4 N 1018,8 18 0 0,0
22.06.2019 05:00:00 13,0 12,7 12,8 18,0 15,5 0 0 3 2 N 1018,8 7 0 0,2
22.06.2019 04:00:00 13,2 12,9 13,0 18,0 15,5 0 0 9 5 N 1019,2 10 0 1,2
22.06.2019 03:00:00 13,3 13,0 13,1 18,1 15,5 4 2 9 5 W 1019,5 12 0 0,0
22.06.2019 02:00:00 13,4 13,1 13,2 18,1 15,5 3 1 9 5 NW 1019,7 13 0 0,0
22.06.2019 01:00:00 13,6 13,3 13,4 18,1 15,5 3 1 7 4 WNW 1019,5 18 0 0,4
22.06.2019 00:00:00 13,7 13,4 13,5 18,1 15,5 3 2 13 7 WNW 1019,6 13 0 0,0
21.06.2019 23:00:00 13,7 13,2 13,5 18,1 15,5 6 3 15 8 NW 1019,7 19 0 0,8
21.06.2019 22:00:00 13,8 13,3 13,5 18,1 15,5 5 3 17 9 WNW 1019,3 6 0 0,6
21.06.2019 21:00:00 13,9 13,4 13,7 18,2 15,5 6 3 17 9 WNW 1019,0 16 0 0,2
21.06.2019 20:00:00 14,1 13,6 13,9 18,2 15,5 8 4 23 13 NW 1018,5 20 0 0,6
21.06.2019 19:00:00 14,2 13,7 14,1 18,2 15,5 8 5 18 10 NW 1018,4 8 0 5,1
21.06.2019 18:00:00 14,7 14,1 14,6 18,1 15,5 6 3 18 10 NW 1018,0 11 0 2,4
21.06.2019 17:00:00 15,2 14,4 15,0 18,1 15,5 5 3 18 10 WNW 1018,2 8 0 2,8
21.06.2019 16:00:00 15,5 14,4 15,5 18,1 15,4 10 5 17 9 NNE 1018,3 8 0 2,5
21.06.2019 15:00:00 15,5 14,2 15,4 18,2 15,4 11 6 20 11 N 1018,4 12 0 4,4
21.06.2019 14:00:00 16,7 15,2 15,9 18,1 15,4 0 0 13 7 N 1018,1 8 0 1,0
21.06.2019 13:00:00 17,2 13,9 15,9 18,2 15,4 8 4 23 12 NNE 1017,9 20 0 0,2
21.06.2019 12:00:00 17,9 13,2 18,3 18,2 15,4 14 7 27 15 NNE 1017,7 20 0 0,0

tt = Température de l'air
td = dewpoint
tt 5cm = Température de l'air 5cm
tt -20cm = Température de l'air -20cm
tt -100cm = Température de l'air -100cm
ff = Vitesse du vent
fx = gusts
dd = Direction du vent
ppp = reduced air pressure
vv = visibility
sd = Ensoleillement
rr = Quantités de précipitations

stations d'obs. à proximité